Home > Weather > Mahón > Past weeks

Flag for Spain Weather for the Past 2 Weeks in Mahón, Menorca, Spain

Now
58 °F

Overcast.


Feels Like: 55 °F
Forecast: 51 / 59 °F
Wind: 12 mph from Southwest

Location: Menorca / Mahon

Current Time: Feb 7, 2016 at 6:00:11 AM

Latest Report: Feb 7, 2016 at 4:00 AM


Visibility: 6 mi

Pressure: 29.92 "Hg

Humidity: 90%

Dew point: 55 °F

Location of MahónLocation

Historic Weather in Mahón — Graph

°F

Mahón Temperature Yesterday

Maximum temperature yesterday: 62 °F (at 2:00 PM)
Minimum temperature yesterday: 49 °F (at 12:00 AM)
Average temperature yesterday: 56 °F

High & Low Weather Summary for the Past Weeks

 TemperatureHumidityPressure
High66 °F (Feb 1, 2:00 PM)97% (Jan 24, 4:00 AM)30.58 "Hg (Jan 24, 4:00 AM)
Low45 °F (Feb 2, 8:00 AM)48% (Feb 4, 9:00 AM)29.92 "Hg (Feb 7, 4:00 AM)
Average55 °F83%30.42 "Hg
* Reported Jan 23 4:00 AM — Feb 7 4:00 AM, Mahón, Weather by CustomWeather, © 2016

Note: Actual official high and low records may vary slightly from our data, if they occured in-between our weather recording intervals... More about our weather records

Advertising

Mahón Weather History for the Previous 24 Hours

 ConditionsComfort  
Time TempWeatherWind HumidityBarometerVisibility
4:00 AM
Sun, Feb 7
58 °FOvercast.12 mph90%29.92 "Hg6 mi
3:00 AM58 °FCool.15 mph86%29.96 "HgN/A
1:00 AM56 °FPassing clouds.12 mph87%30.02 "Hg6 mi
9:00 PM
Sat, Feb 6
57 °FCool.12 mph89%30.10 "HgN/A
8:00 PM56 °FCool.8 mph91%30.10 "HgN/A
7:00 PM57 °FOvercast.5 mph91%30.10 "Hg6 mi
6:00 PM58 °FCool.8 mph88%30.10 "HgN/A
5:00 PM59 °FCool.10 mph85%30.12 "HgN/A
4:00 PM59 °FOvercast.12 mph82%30.14 "Hg7 mi
3:00 PM60 °FCool.16 mph80%30.16 "HgN/A
2:00 PM62 °FOvercast.15 mph76%30.19 "Hg9 mi
1:00 PM61 °FOvercast.17 mph77%30.21 "Hg9 mi
12:00 PM61 °FCool.15 mph80%30.25 "HgN/A
11:00 AM60 °FCool.16 mph78%30.27 "HgN/A
10:00 AM58 °FOvercast.13 mph84%30.27 "Hg7 mi
9:00 AM56 °FCool.9 mph86%30.28 "HgN/A
8:00 AM55 °FOvercast.9 mph87%30.28 "Hg9 mi
7:00 AM54 °FOvercast.8 mph87%30.28 "Hg7 mi
6:00 AM53 °FCool.6 mph90%30.28 "HgN/A
Weather by CustomWeather, © 2016

See weather overviewHow to use our weather pages